Location: Grandview
(34.8900°N, 117.1058°W)
Time: 04:10:31
(UTC-07:00)

Vanguard 3 - Visible Passes

Search period start: 19 October 2017 00:00
Search period end: 29 October 2017 00:00
Orbit: 510 x 3263 km, 33.3° (Epoch: 18 October)

Date Brightness Start Highest point End Pass type
(mag) Time Alt. Az. Time Alt. Az. Time Alt. Az.
19 Oct 10.9 02:00:56 16° ESE 02:00:56 16° ESE 02:04:27 10° ESE visible
19 Oct 9.6 04:05:33 35° SSW 04:10:18 44° SSE 04:19:14 10° E visible
19 Oct 8.5 06:11:34 10° WSW 06:23:56 72° S 06:30:39 10° E visible
20 Oct 10.1 02:56:14 34° SE 02:56:14 34° SE 03:05:11 10° E visible
20 Oct 9.0 05:00:50 26° SW 05:09:24 62° SSE 05:17:36 10° E visible
21 Oct 10.9 01:46:50 17° ESE 01:46:50 17° ESE 01:49:58 10° E visible
21 Oct 9.5 03:51:26 46° S 03:54:20 51° SSE 04:04:11 10° E visible
21 Oct 8.6 05:56:02 13° WSW 06:08:20 77° S 06:15:38 10° E visible
22 Oct 10.1 02:41:58 37° SE 02:41:58 37° SE 02:50:08 10° E visible
22 Oct 9.0 04:46:34 36° SW 04:53:33 69° SSE 05:02:30 10° E visible
23 Oct 10.9 01:32:27 17° E 01:32:27 17° E 01:35:05 10° E visible
23 Oct 9.5 03:37:02 57° S 03:38:15 58° SSE 03:48:59 10° E visible
23 Oct 8.7 05:41:38 19° WSW 05:52:38 81° S 06:00:34 10° E visible
24 Oct 10.2 02:27:28 38° ESE 02:27:28 38° ESE 02:34:54 10° E visible
24 Oct 9.1 04:32:03 46° WSW 04:37:36 74° SSE 04:47:20 10° E visible
24 Oct 8.5 06:38:39 10° W 06:51:34 81° S 06:58:30 10° E visible
25 Oct 11.0 01:17:51 16° E 01:17:51 16° E 01:19:54 10° E visible
25 Oct 9.5 03:22:25 64° SSE 03:22:25 64° SSE 03:33:42 10° E visible
25 Oct 8.9 05:27:00 25° W 05:36:52 83° S 05:45:28 10° E visible
26 Oct 10.3 02:12:46 36° ESE 02:12:46 36° ESE 02:19:31 10° E visible
26 Oct 9.2 04:17:20 56° WSW 04:21:34 78° S 04:32:06 10° E visible
26 Oct 8.7 06:21:57 10° W 06:35:54 80° S 06:43:26 10° ESE visible
27 Oct 11.1 01:03:04 14° E 01:03:04 14° E 01:04:28 10° E visible
27 Oct 9.6 03:07:38 65° SE 03:07:38 65° SE 03:18:19 10° E visible
27 Oct 9.0 05:12:13 32° W 05:21:00 84° S 05:30:18 10° E visible
28 Oct 10.4 01:57:55 33° E 01:57:55 33° E 02:04:00 10° E visible
28 Oct 9.3 04:02:29 66° WSW 04:05:26 81° S 04:16:48 10° E visible
28 Oct 8.9 06:07:04 14° W 06:20:09 78° SSW 06:28:19 10° ESE visible
